User: anonymous   Login
Location: Bush Observatory
(40.2653°N, 94.3194°W)
Time: 17:23:06
(UTC-05:00)
Language:

Cosmos 1933 Rocket - Orbit

View from above orbital plane
View from above orbital plane
View from above satellite
View from above satellite

Ground track
Ground track

The orbit data is extracted from the following two-line orbital elements,

1 18959U 88020B   17291.13401672  .00000102  00000-0  94897-5 0  9999
2 18959  82.5375 155.9445 0018434  91.5532 268.7795 14.83355589598807
Epoch (UTC): 18 October 2017 03:12:59
Eccentricity: 0.0018434
inclination: 82.5375°
perigee height: 606 km
apogee height: 631 km
right ascension of ascending node: 155.9445°
argument of perigee: 91.5532°
revolutions per day: 14.83355589
mean anomaly at epoch: 268.7795°
orbit number at epoch: 59880

The dashed part of the orbit path shows where the satellite is in the earth's shadow,  

DLR